Back to catalog

ATLAS 5 CENTAUR DEB

LostHEO
NORAD 44657·DEBRIS·🇺🇸 United States

Launched Oct 17, 2018 from Cape Canaveral Space Force Station

Loading…

Next Passes (next 24 hours)

TLE

StaleSource: Space-Track

Epoch: Sep 25, 2021, 00:27 UTC

1 44657U 18079T   21268.01908291 -.00000103  00000-0  00000-0 0  9995
2 44657  11.9133 196.3720 5048549  23.4967 353.1075  1.90168932    14

Track ATLAS 5 CENTAUR DEB in real time with AllMySat

Download on the App Store